EW1970 Weather Reports


Display with metric or nautical units.
time (UTC)temp
F
wind
direction
speed
MPH
gust
MPH
rain 1hr
in
rain 24hr
in
rain mn
in
humidity
%
barometer
mb
20260905020027 83 103 0.0 4.0 0.00 0.00 0.00 70 1013.8
20260905014534 84 149 0.0 2.0 0.00 0.00 0.00 70 1013.8
20260905013016 84 111 1.0 4.0 0.00 0.00 0.00 69 1013.7
20260905011512 84 98 1.0 6.0 0.00 0.00 0.00 70 1013.7
20260905010008 84 24 0.0 2.0 0.00 0.00 0.00 70 1013.4
20260905004514 85 78 0.0 4.0 0.00 0.00 0.00 69 1013.2
20260905003026 86 159 0.0 3.0 0.00 0.00 0.00 67 1013.1
20260905001509 86 154 0.0 5.0 0.00 0.00 0.00 66 1013.1
20260905000034 87 69 1.0 6.0 0.00 0.00 0.00 65 1012.9
20260904234505 87 256 0.0 9.0 0.00 0.00 0.00 65 1012.9
20260904233011 87 146 0.0 5.0 0.00 0.00 0.00 64 1012.9
20260904231519 88 115 1.0 7.0 0.00 0.00 0.00 62 1012.9
20260904230045 89 166 2.0 9.0 0.00 0.00 0.00 60 1013.0
20260904224530 93 221 1.0 6.0 0.00 0.00 0.00 48 1012.7
20260904223007 94 89 1.0 9.0 0.00 0.00 0.00 48 1012.7
20260904221515 92 115 1.0 9.0 0.00 0.00 0.00 51 1012.7
20260904220002 94 250 1.0 4.0 0.00 0.00 0.00 49 1012.8
20260904214504 93 350 1.0 8.0 0.00 0.00 0.00 46 1013.2
20260904213007 95 99 1.0 7.0 0.00 0.00 0.00 41 1013.3
20260904211513 95 33 1.0 8.0 0.00 0.00 0.00 45 1013.5
20260904210026 94 103 1.0 7.0 0.00 0.00 0.00 45 1013.7
20260904204526 94 257 2.0 7.0 0.00 0.00 0.00 46 1013.9
20260904203006 94 201 0.0 7.0 0.00 0.00 0.00 44 1014.1
20260904201509 95 292 1.0 7.0 0.00 0.00 0.00 46 1014.3
20260904200037 93 119 1.0 8.0 0.00 0.00 0.00 48 1014.5
20260904194534 94 164 3.0 7.0 0.00 0.00 0.00 47 1014.6
20260904193026 93 226 1.0 4.0 0.00 0.00 0.00 55 1014.9
20260904191514 91 273 1.0 7.0 0.00 0.00 0.00 60 1015.0
20260904190016 87 109 1.0 5.0 0.00 0.00 0.00 65 1015.3
20260904184528 87 281 1.0 6.0 0.00 0.00 0.00 66 1015.5
20260904183030 88 144 1.0 5.0 0.00 0.00 0.00 64 1015.6
20260904181509 87 234 0.0 2.0 0.00 0.00 0.00 71 1015.6
20260904180011 85 138 0.0 3.0 0.00 0.00 0.00 72 1015.8
20260904174525 86 53 0.0 2.0 0.00 0.00 0.00 72 1015.9
20260904173023 85 140 0.0 4.0 0.00 0.00 0.00 72 1016.0
20260904171530 85 149 0.0 5.0 0.00 0.00 0.00 73 1015.9
20260904170013 84 132 1.0 2.0 0.00 0.00 0.00 74 1016.1
20260904164534 84 260 0.0 4.0 0.00 0.00 0.00 73 1016.1
20260904163021 84 255 0.0 7.0 0.00 0.00 0.00 75 1016.1
20260904161505 84 248 0.0 3.0 0.00 0.00 0.00 76 1016.0
20260904160032 83 107 0.0 6.0 0.00 0.00 0.00 77 1015.9
20260904154513 83 36 2.0 8.0 0.00 0.00 0.00 78 1015.9
20260904153019 83 200 1.0 8.0 0.00 0.00 0.00 80 1015.8
20260904151503 83 273 3.0 7.0 0.00 0.00 0.00 79 1015.7
20260904150005 83 194 3.0 4.0 0.00 0.00 0.00 81 1015.8
20260904144511 81 214 1.0 6.0 0.00 0.00 0.00 84 1015.7
20260904143016 81 283 1.0 3.0 0.00 0.00 0.00 85 1015.7
20260904141503 80 274 0.0 4.0 0.00 0.00 0.00 87 1015.6
20260904140005 80 217 0.0 8.0 0.00 0.00 0.00 88 1015.5
20260904134508 79 213 0.0 6.0 0.00 0.00 0.00 90 1015.4
20260904133013 78 248 2.0 4.0 0.00 0.00 0.00 91 1015.3
20260904131532 78 246 0.0 3.0 0.00 0.00 0.00 91 1015.2
20260904130004 78 240 0.0 2.0 0.00 0.00 0.00 90 1015.3
20260904124509 79 159 0.0 2.0 0.00 0.00 0.00 89 1015.3
20260904123012 79 283 0.0 2.0 0.00 0.00 0.00 88 1015.2
20260904121518 79 187 0.0 3.0 0.00 0.00 0.00 88 1014.9
20260904120029 79 107 0.0 3.0 0.00 0.00 0.00 88 1014.7
20260904114506 79 140 0.0 4.0 0.00 0.00 0.00 87 1014.5
20260904113010 79 119 0.0 4.0 0.00 0.00 0.00 87 1014.4
20260904111517 79 141 0.0 3.0 0.00 0.00 0.00 86 1014.2
20260904110024 79 309 0.0 2.0 0.00 0.00 0.00 86 1014.2
20260904104527 79 111 0.0 3.0 0.00 0.00 0.00 86 1014.2
20260904103010 79 119 1.0 4.0 0.00 0.00 0.00 85 1014.1
20260904101514 79 138 1.0 3.0 0.00 0.00 0.00 85 1014.0
20260904100027 80 310 0.0 4.0 0.00 0.00 0.00 85 1013.9
20260904094526 80 148 0.0 2.0 0.00 0.00 0.00 84 1013.7
20260904093052 80 319 0.0 4.0 0.00 0.00 0.00 83 1013.6
20260904091515 80 223 1.0 5.0 0.00 0.00 0.00 83 1013.8
20260904090019 80 242 0.0 2.0 0.00 0.00 0.00 83 1013.8
20260904084524 80 135 0.0 3.0 0.00 0.00 0.00 83 1013.8
20260904083029 80 290 0.0 5.0 0.00 0.00 0.00 84 1013.8
20260904081532 80 97 0.0 3.0 0.00 0.00 0.00 83 1013.8
20260904080018 80 191 1.0 8.0 0.00 0.00 0.00 83 1013.8
20260904074522 80 252 2.0 5.0 0.00 0.00 0.00 83 1013.8
20260904073048 80 248 2.0 10.0 0.00 0.00 0.00 83 1013.9
20260904071535 80 277 0.0 7.0 0.00 0.00 0.00 83 1014.1
20260904070033 80 171 0.0 3.0 0.00 0.00 0.00 83 1014.3
20260904064520 80 78 0.0 3.0 0.00 0.00 0.00 82 1014.3
20260904063026 80 300 0.0 4.0 0.00 0.00 0.00 82 1014.3
20260904061508 80 208 1.0 4.0 0.00 0.00 0.00 81 1014.2
20260904060012 80 43 1.0 6.0 0.00 0.00 0.00 80 1014.4
20260904054517 80 29 1.0 5.0 0.00 0.00 0.00 80 1014.3
20260904053003 80 224 1.0 7.0 0.00 0.00 0.00 80 1014.1
20260904051506 80 204 1.0 7.0 0.00 0.00 0.00 80 1014.1
20260904050008 80 143 2.0 8.0 0.00 0.00 0.00 80 1014.0
20260904044517 80 147 1.0 7.0 0.00 0.00 0.00 79 1014.1
20260904043017 80 144 2.0 7.0 0.00 0.00 0.00 79 1013.9
20260904041503 81 171 0.0 6.0 0.00 0.00 0.00 79 1014.0
20260904040008 80 115 0.0 5.0 0.00 0.00 0.00 78 1013.9
20260904034516 81 107 1.0 6.0 0.00 0.00 0.00 78 1013.8
20260904033030 81 157 1.0 9.0 0.00 0.00 0.00 77 1013.7
20260904031525 81 128 1.0 9.0 0.00 0.00 0.00 76 1013.7
20260904030003 81 151 1.0 7.0 0.00 0.00 0.00 74 1013.4
20260904024512 82 324 0.0 4.0 0.00 0.00 0.00 73 1013.4
20260904023016 82 119 2.0 7.0 0.00 0.00 0.00 72 1013.3
20260904021527 82 190 0.0 7.0 0.00 0.00 0.00 71 1013.1